DHK6717 EGLL-EDDF

Flight info

Callsign DHK6717
Flight time N/A
Altitude 33000
Route BPK Q295 MATCH DCT REDFA DCT TACHA DCT NOLRU DCT DIXAT DIXAT1A
Aircraft A306/H-SDE3FGHIRWY/LB1

Departure

Time 2026-05-05 12:05
Airport London Heathrow Airport (EGLL)

Arrival

Time N/A
Airport Frankfurt Main Airport (EDDF)
Time Latitude Longitude Altitude Speed Heading
2026-05-05 11:27 51.46183 -0.46602 92 ft 0 kts 178°
2026-05-05 11:35 51.46184 -0.46602 92 ft 0 kts 178°
2026-05-05 11:48 51.46222 -0.46604 92 ft 3 kts 178°
2026-05-05 11:48 51.46241 -0.46605 92 ft 3 kts 178°
2026-05-05 11:48 51.46259 -0.46606 92 ft 3 kts 178°
2026-05-05 11:49 51.46278 -0.46607 92 ft 3 kts 154°
2026-05-05 11:49 51.46294 -0.46622 92 ft 3 kts 178°
2026-05-05 11:49 51.46312 -0.46615 92 ft 3 kts 235°
2026-05-05 11:49 51.46319 -0.46588 93 ft 3 kts 264°
2026-05-05 11:50 51.46320 -0.46586 93 ft 0 kts 269°
2026-05-05 11:53 51.46320 -0.46587 93 ft 0 kts 269°
2026-05-05 11:53 51.46320 -0.46588 93 ft 1 kts 269°
2026-05-05 11:53 51.46319 -0.46616 91 ft 4 kts 269°
2026-05-05 11:53 51.46319 -0.46675 93 ft 6 kts 269°
2026-05-05 11:54 51.46321 -0.46746 93 ft 7 kts 275°
2026-05-05 11:54 51.46323 -0.46827 95 ft 8 kts 271°
2026-05-05 11:54 51.46324 -0.46877 92 ft 0 kts 271°
2026-05-05 11:54 51.46324 -0.46880 92 ft 2 kts 270°
2026-05-05 11:55 51.46324 -0.46935 92 ft 8 kts 270°
2026-05-05 11:55 51.46324 -0.47030 92 ft 9 kts 270°
2026-05-05 11:55 51.46324 -0.47138 95 ft 10 kts 269°
2026-05-05 11:55 51.46322 -0.47256 95 ft 11 kts 268°
2026-05-05 11:56 51.46321 -0.47297 95 ft 0 kts 269°
2026-05-05 11:58 51.46321 -0.47303 95 ft 2 kts 270°
2026-05-05 11:58 51.46324 -0.47338 93 ft 5 kts 277°
2026-05-05 11:58 51.46329 -0.47405 96 ft 7 kts 277°
2026-05-05 11:59 51.46338 -0.47498 93 ft 10 kts 276°
2026-05-05 11:59 51.46338 -0.47619 92 ft 12 kts 262°
2026-05-05 11:59 51.46297 -0.47749 94 ft 14 kts 240°
2026-05-05 11:59 51.46254 -0.47901 94 ft 16 kts 266°
2026-05-05 12:00 51.46252 -0.48090 95 ft 18 kts 270°
2026-05-05 12:00 51.46252 -0.48319 90 ft 22 kts 270°
2026-05-05 12:00 51.46253 -0.48549 92 ft 17 kts 276°
2026-05-05 12:00 51.46278 -0.48664 93 ft 0 kts 298°
2026-05-05 12:01 51.46289 -0.48684 91 ft 4 kts 313°
2026-05-05 12:01 51.46298 -0.48698 92 ft 0 kts 316°
2026-05-05 12:02 51.46301 -0.48702 92 ft 2 kts 317°
2026-05-05 12:03 51.46321 -0.48725 91 ft 5 kts 328°
2026-05-05 12:03 51.46356 -0.48745 95 ft 6 kts 347°
2026-05-05 12:03 51.46394 -0.48753 94 ft 6 kts 354°
2026-05-05 12:03 51.46436 -0.48747 95 ft 7 kts 15°
2026-05-05 12:04 51.46473 -0.48693 97 ft 7 kts 69°
2026-05-05 12:04 51.46477 -0.48601 95 ft 10 kts 89°
2026-05-05 12:04 51.46478 -0.48375 95 ft 32 kts 89°
2026-05-05 12:04 51.46481 -0.47688 91 ft 93 kts 89°
2026-05-05 12:05 51.46485 -0.46361 97 ft 144 kts 89°
2026-05-05 12:05 51.46497 -0.44789 193 ft 176 kts 86°
2026-05-05 12:05 51.46517 -0.43415 544 ft 186 kts 86°
2026-05-05 12:05 51.46621 -0.41109 1191 ft 203 kts 74°
2026-05-05 12:06 51.47375 -0.39109 1543 ft 221 kts 43°
2026-05-05 12:06 51.48563 -0.37456 2078 ft 229 kts 39°
2026-05-05 12:06 51.49788 -0.35726 2578 ft 239 kts 42°
2026-05-05 12:06 51.50962 -0.33906 3122 ft 246 kts 45°
2026-05-05 12:07 51.51663 -0.32403 3516 ft 252 kts 62°
2026-05-05 12:07 51.52328 -0.29790 4430 ft 252 kts 69°
2026-05-05 12:07 51.52910 -0.27124 5379 ft 254 kts 70°
2026-05-05 12:07 51.53506 -0.24405 6215 ft 261 kts 68°
2026-05-05 12:08 51.54199 -0.22335 6853 ft 265 kts 52°
2026-05-05 12:08 51.55613 -0.20428 7685 ft 270 kts 29°
2026-05-05 12:08 51.57333 -0.19145 8558 ft 275 kts 23°
2026-05-05 12:08 51.59131 -0.18034 9455 ft 278 kts 18°
2026-05-05 12:09 51.60976 -0.17145 10239 ft 284 kts 15°
2026-05-05 12:09 51.62748 -0.16339 10571 ft 302 kts 15°
2026-05-05 12:09 51.64625 -0.15484 10846 ft 318 kts 15°
2026-05-05 12:09 51.66708 -0.14526 11125 ft 335 kts 15°
2026-05-05 12:10 51.69004 -0.13461 11395 ft 351 kts 16°
2026-05-05 12:10 51.71348 -0.12091 11667 ft 366 kts 26°
2026-05-05 12:10 51.73173 -0.10102 11990 ft 376 kts 41°
2026-05-05 12:10 51.74794 -0.06766 12502 ft 382 kts 61°
2026-05-05 12:11 51.75619 -0.03175 13055 ft 386 kts 74°
2026-05-05 12:11 51.76180 0.01081 13637 ft 389 kts 79°
2026-05-05 12:11 51.76561 0.05414 14260 ft 391 kts 82°
2026-05-05 12:11 51.76774 0.08392 14576 ft 394 kts 83°
2026-05-05 12:12 51.77067 0.12821 15069 ft 398 kts 83°
2026-05-05 12:12 51.77367 0.17272 15627 ft 401 kts 83°
2026-05-05 12:12 51.77693 0.21774 16135 ft 405 kts 82°
2026-05-05 12:12 51.78206 0.26269 16659 ft 407 kts 78°
2026-05-05 12:13 51.78616 0.29234 16874 ft 409 kts 77°
2026-05-05 12:13 51.79420 0.34586 16966 ft 410 kts 76°
2026-05-05 12:13 51.79887 0.37545 16969 ft 410 kts 75°
2026-05-05 12:13 51.80849 0.43520 16966 ft 411 kts 75°
2026-05-05 12:14 51.81569 0.47949 16965 ft 414 kts 76°
2026-05-05 12:14 51.82061 0.50999 16966 ft 415 kts 75°
2026-05-05 12:14 51.82988 0.56821 17034 ft 416 kts 76°
2026-05-05 12:14 51.83466 0.59847 17331 ft 418 kts 76°
2026-05-05 12:15 51.84183 0.64416 17901 ft 420 kts 76°
2026-05-05 12:15 51.84905 0.69028 18368 ft 423 kts 76°
2026-05-05 12:15 51.85628 0.73669 18798 ft 426 kts 76°
2026-05-05 12:15 51.86267 0.77784 19152 ft 428 kts 77°
2026-05-05 12:16 51.86995 0.82476 19545 ft 431 kts 76°
2026-05-05 12:16 51.87726 0.87202 19951 ft 434 kts 77°
2026-05-05 12:16 51.88460 0.91958 20324 ft 437 kts 77°
2026-05-05 12:16 51.89195 0.96737 20708 ft 439 kts 76°
2026-05-05 12:17 51.89933 1.01544 21098 ft 441 kts 77°
2026-05-05 12:17 51.90671 1.06371 21494 ft 443 kts 77°
2026-05-05 12:17 51.91357 1.10866 21786 ft 446 kts 77°
2026-05-05 12:17 51.92037 1.15342 22133 ft 448 kts 77°
2026-05-05 12:18 51.92785 1.20268 22490 ft 450 kts 77°
2026-05-05 12:18 51.93532 1.25211 22827 ft 453 kts 77°
2026-05-05 12:18 51.94282 1.30185 23188 ft 455 kts 78°
2026-05-05 12:18 51.95034 1.35186 23499 ft 457 kts 78°
2026-05-05 12:19 51.95784 1.40198 23789 ft 459 kts 78°
2026-05-05 12:19 51.96539 1.45257 24032 ft 462 kts 77°
2026-05-05 12:19 51.97293 1.50325 24270 ft 464 kts 78°
2026-05-05 12:19 51.98051 1.55431 24504 ft 467 kts 78°
2026-05-05 12:20 51.98809 1.60562 24792 ft 468 kts 78°
2026-05-05 12:20 51.99559 1.65650 25015 ft 470 kts 78°
2026-05-05 12:20 52.00321 1.70836 25289 ft 471 kts 78°
2026-05-05 12:20 52.01079 1.76020 25519 ft 473 kts 78°
2026-05-05 12:21 52.01841 1.81239 25769 ft 474 kts 78°
2026-05-05 12:21 52.02600 1.86460 25986 ft 476 kts 78°
2026-05-05 12:21 52.03360 1.91703 26202 ft 478 kts 78°
2026-05-05 12:21 52.04125 1.96994 26271 ft 483 kts 78°
2026-05-05 12:22 52.04890 2.02318 26526 ft 484 kts 78°
2026-05-05 12:22 52.05648 2.07600 26750 ft 485 kts 78°
2026-05-05 12:22 52.06411 2.12941 26974 ft 486 kts 79°
2026-05-05 12:22 52.07172 2.18288 27281 ft 485 kts 79°
2026-05-05 12:23 52.07932 2.23639 27581 ft 484 kts 79°
2026-05-05 12:23 52.08687 2.28974 27883 ft 484 kts 79°
2026-05-05 12:23 52.09438 2.34305 28176 ft 483 kts 79°
2026-05-05 12:23 52.10189 2.39648 28477 ft 483 kts 79°
2026-05-05 12:24 52.10925 2.44911 28773 ft 483 kts 79°
2026-05-05 12:24 52.11712 2.50296 29027 ft 484 kts 77°
2026-05-05 12:24 52.12629 2.55568 29302 ft 484 kts 76°
2026-05-05 12:24 52.13626 2.60794 29601 ft 484 kts 75°
2026-05-05 12:25 52.14644 2.65960 29899 ft 484 kts 75°
2026-05-05 12:25 52.15672 2.71164 30174 ft 484 kts 75°
2026-05-05 12:25 52.16692 2.76382 30435 ft 483 kts 75°
2026-05-05 12:25 52.17698 2.81612 30706 ft 482 kts 75°
2026-05-05 12:26 52.18690 2.86830 30960 ft 482 kts 75°
2026-05-05 12:26 52.19672 2.92048 31221 ft 481 kts 75°
2026-05-05 12:26 52.20648 2.97264 31463 ft 481 kts 75°
2026-05-05 12:26 52.21620 3.02486 31670 ft 482 kts 75°
2026-05-05 12:27 52.22592 3.07718 31919 ft 481 kts 75°
2026-05-05 12:27 52.23559 3.12944 32179 ft 481 kts 75°
2026-05-05 12:27 52.24287 3.18264 32436 ft 478 kts 84°
2026-05-05 12:27 52.24499 3.23675 32655 ft 476 kts 94°
2026-05-05 12:28 52.24140 3.28993 32911 ft 472 kts 104°
2026-05-05 12:28 52.23254 3.34131 32965 ft 468 kts 111°
2026-05-05 12:28 52.20991 3.44059 32964 ft 466 kts 115°
2026-05-05 12:29 52.18563 3.53872 32963 ft 466 kts 115°
2026-05-05 12:29 52.16161 3.63614 32958 ft 466 kts 115°
2026-05-05 12:30 52.13770 3.73425 32957 ft 466 kts 115°
2026-05-05 12:30 52.11386 3.83229 32948 ft 466 kts 115°
2026-05-05 12:31 52.09244 3.92007 32947 ft 466 kts 115°
2026-05-05 12:31 52.06845 4.01797 32941 ft 465 kts 116°
2026-05-05 12:32 52.04440 4.11550 32940 ft 465 kts 116°
2026-05-05 12:32 52.02024 4.21306 32917 ft 465 kts 116°
2026-05-05 12:33 51.99615 4.30997 32910 ft 465 kts 116°
2026-05-05 12:33 51.97186 4.40723 32912 ft 465 kts 116°
2026-05-05 12:34 51.94752 4.50433 32911 ft 464 kts 117°
2026-05-05 12:34 51.92323 4.60076 32917 ft 462 kts 117°
2026-05-05 12:35 51.89884 4.69712 32925 ft 462 kts 117°
2026-05-05 12:35 51.87438 4.79334 32923 ft 462 kts 117°
2026-05-05 12:36 51.84997 4.88900 32912 ft 462 kts 117°
2026-05-05 12:36 51.82522 4.98554 32920 ft 464 kts 117°
2026-05-05 12:37 51.80042 5.08194 32921 ft 464 kts 117°
2026-05-05 12:37 51.77556 5.17812 32920 ft 464 kts 117°